Location: *
(31.2983°S, 151.4094°E)
Time: 13:18:14
(UTC+00:00)

Daily predictions for brighter satellites

Satellite Brightness Start Highest point End
(mag) Time Altitude Azimuth Time Altitude Azimuth Time Altitude Azimuth
ATLAS 2AS CENTAUR R/B 4.1 17:09:38 28° ESE 17:09:38 28° ESE 17:13:06 10° SE
Atlas Centaur 2 3.4 17:36:21 55° NNE 17:36:21 55° NNE 17:43:23 10° ENE
Milstar 3 3.9 17:44:46 32° NNE 17:45:38 33° NNE 17:52:39 10° E
Cosmos 2344 4.3 17:33:24 10° SSW 17:46:12 82° ESE 17:55:17 10° NNE
SL-16 R/B 3.0 17:53:27 43° SSE 17:53:27 43° SSE 17:57:14 10° SSE
Okean O Rocket 3.6 17:49:06 10° NE 17:52:53 27° ESE 17:56:40 10° SSE
Milstar 3 Cent rocket 4.1 17:57:59 16° NNE 17:58:40 16° NNE 18:01:57 10° ENE
Centaur AC-42 4.0 17:59:25 40° NNW 18:00:21 41° NNW 18:05:19 10° NE
Cosmos 1464 Rocket 4.4 17:57:27 10° N 18:03:45 64° E 18:10:06 10° SSE
Sakura Rocket 4.4 18:04:51 58° NNW 18:05:13 59° NNW 18:13:54 10° ENE
Atlas 2A Centaur Rocket 3.1 18:07:03 46° NNE 18:07:03 46° NNE 18:15:18 10° ENE
MOS 1-B 4.2 18:01:24 10° NNE 18:07:13 89° WNW 18:13:07 10° SSW
CZ-4B R/B 4.0 18:06:54 10° NNE 18:12:13 51° ESE 18:17:29 10° S
NOSS 3-4 (A) 4.1 18:09:14 23° NNW 18:14:48 77° ENE 18:22:47 10° SSE
NOSS 3-4 (C) 4.2 18:09:14 22° NNW 18:14:54 76° ENE 18:22:53 10° SSE
OAO 3 Rocket 3.4 18:16:35 67° E 18:16:35 67° E 18:20:45 10° ESE
Cosmos 1238 Rocket 4.1 18:19:42 47° SSW 18:19:42 47° SSW 18:24:10 10° S
Hubble Space Telescope 1.6 18:21:36 45° NE 18:21:36 45° NE 18:24:47 10° ENE
Cosmos 1513 Rocket 4.4 18:17:00 10° N 18:23:07 90° NNE 18:29:25 10° S
Cosmos 1891 Rocket 4.4 18:17:04 10° N 18:23:19 89° WSW 18:29:47 10° S
ALOS 3.6 18:19:13 10° NE 18:23:34 39° ESE 18:27:58 10° S
GEOS 3 Rocket 4.4 18:19:36 10° NE 18:24:42 50° SE 18:29:15 13° SSW
Cosmos 1570 Rocket 4.1 18:24:04 10° SSW 18:29:23 75° ESE 18:34:36 10° NNE
Cosmos 2285 Rocket 4.3 18:27:40 10° N 18:34:03 68° ENE 18:40:29 10° SSE
Cosmos 2278 Rocket 4.0 18:38:38 16° NNW 18:38:38 16° NNW 18:39:52 10° NNW
Abrixas rocket 4.2 18:37:38 20° SSE 18:37:38 20° SSE 18:38:53 10° SE
ATLAS CENTAUR R/B 2.3 18:33:24 29° NW 18:36:57 79° SW 18:40:23 10° SSE
PSLV R/B 3.8 18:34:23 10° S 18:38:36 82° WSW 18:40:31 32° NNW
OAO 2 Rocket 3.5 18:40:01 47° SW 18:41:00 56° S 18:45:57 10° ESE
Cosmos 1743 Rocket 4.3 18:45:55 35° SW 18:45:55 35° SW 18:48:57 10° S
Cosmos 468 Rocket 4.1 18:45:55 35° SW 18:47:40 50° WNW 18:52:39 10° N
NOAA 6 3.9 18:44:16 10° N 18:49:28 82° WNW 18:54:44 10° SSW
ASTRO E2 2.6 18:48:56 60° W 18:49:38 90° ESE 18:53:41 10° E
Shenzhou-11 Module 3.1 18:52:10 33° SSE 18:52:10 33° SSE 18:54:05 10° SE
CZ-3B R/B 4.0 18:49:27 23° NW 18:53:34 56° NNE 19:15:56 10° E
SL-24 DEB 4.3 18:51:25 10° S 18:56:12 83° E 19:00:51 10° N
Cosmos 1515 Rocket 3.8 18:52:42 10° SSW 18:56:57 44° W 19:01:06 10° NNW
ATLAS 2AS CENTAUR R/B 3.2 18:57:07 28° WSW 18:58:21 31° SW 19:03:42 10° S
Meteor 2-3 Rocket 3.6 18:54:07 10° NNW 18:59:41 68° W 19:05:25 10° S
Cosmos 1825 4.4 19:02:44 13° SSW 19:02:44 13° SSW 19:03:13 10° SSW
Cosmos 1805 Rocket 3.5 18:57:18 10° N 19:01:47 89° WSW 19:06:18 10° S
Cosmos 192 4.3 18:58:30 10° SSW 19:03:32 85° WNW 19:08:29 10° NNE
Cosmos 1933 3.4 19:00:48 10° SSW 19:04:51 54° W 19:08:50 10° N
USA 238 DEB 3.6 18:59:38 10° SSW 19:06:31 75° WNW 19:13:11 10° NNE
USA 238 3.6 18:59:43 10° SSW 19:06:36 75° WNW 19:13:17 10° NNE
ATLAS 3B R/B 3.9 19:00:41 10° SSW 19:07:42 45° SE 19:14:25 10° NE
Cosmos 1943 Rocket 3.8 19:02:57 10° S 19:08:04 35° ESE 19:13:07 10° NE
Cosmos 2208 Rocket 4.2 19:03:24 10° SSW 19:08:41 52° WNW 19:13:57 10° N
RESURS DK-1 2.9 19:05:29 10° N 19:09:31 60° ENE 19:13:38 10° SSE
Cosmos 968 Rocket 4.1 19:05:57 10° N 19:11:08 62° ENE 19:16:22 10° SSE
Cosmos 1606 2.6 19:07:36 10° SSW 19:11:26 67° W 19:15:11 10° N
Cosmos 2297 3.8 19:08:52 10° SSW 19:14:21 50° WNW 19:19:46 10° N
Cosmos 1092 Rocket 4.4 19:11:08 10° S 19:17:32 70° E 19:23:47 10° NNE
Cosmos 1943 3.2 19:12:23 10° NNW 19:18:03 89° WSW 19:23:45 10° SSE
Chandra Rocket (1) 3.9 19:05:27 17° W 19:19:53 74° N 19:24:57 10° E
Cosmos 1763 Rocket 4.2 19:17:25 10° SW 19:21:50 30° W 19:26:12 10° NNW
BREEZE-M DEB (TANK) 4.3 19:19:43 10° SSW 19:22:44 23° SSE 19:24:41 10° E
Atlas Centaur 2 4.1 19:18:58 16° WNW 19:24:24 30° NNW 19:31:17 10° NNE
Cosmos 1354 Rocket 4.1 19:19:14 10° N 19:24:28 80° ENE 19:29:45 10° SSE
Cosmos 2228 Rocket 3.8 19:21:17 10° SSW 19:25:18 31° W 19:29:18 10° NNW
FENGYUN 3A 3.9 19:20:48 10° N 19:25:58 45° W 19:31:11 10° SSW
Cosmos 1603 3.9 19:21:54 10° NW 19:27:27 50° WSW 19:33:05 10° S
Cosmos 1666 Rocket 3.5 19:24:12 10° N 19:28:38 86° W 19:33:09 10° S
Okean O Rocket 2.9 19:25:44 10° NW 19:29:08 21° W 19:32:33 10° SW
SMAP 3.2 19:25:42 10° NNE 19:30:21 81° ESE 19:35:05 10° S
Unknown 4.1 19:27:48 10° SSW 19:31:18 49° SE 19:34:46 10° ENE
Cosmos 1782 2.8 19:28:53 10° S 19:33:00 90° WNW 19:37:03 10° N
Cosmos 2084 3.8 19:30:17 10° SSW 19:34:52 78° ESE 19:39:29 10° NNE
SL-16 R/B 4.0 19:35:22 11° WSW 19:36:16 11° SW 19:37:51 10° SW
IRS-1C Rocket 4.3 19:32:34 10° N 19:37:41 52° W 19:42:53 10° SSW
Cosmos 1437 4.1 19:38:12 10° NNE 19:41:09 42° E 19:44:08 10° SSE
Okean-O 2.7 19:37:52 10° NNE 19:42:18 84° ESE 19:46:49 10° S
Cosmos 1400 Rocket 4.5 19:40:04 10° S 19:44:01 40° E 19:47:55 10° NNE
Cosmos 1634 Rocket 4.1 19:39:46 10° NNW 19:46:02 63° W 19:52:23 10° S
USA 81 4.5 19:43:02 10° S 19:48:22 71° E 19:53:37 10° N
Sich 1 3.7 19:44:48 10° NW 19:48:48 34° W 19:52:50 10° SSW
Unknown 4.4 19:47:46 10° W 19:49:41 17° NW 19:51:36 10° N
Cosmos 841 Rocket 4.3 19:45:26 10° SW 19:49:53 29° W 19:54:17 10° NNW
Cosmos 1470 Rocket 3.9 19:47:44 10° N 19:52:03 72° E 19:56:25 10° S
NOSS 3-2 (C) 3.4 19:48:59 10° SW 19:54:57 59° WNW 20:00:25 10° NNE
COSMO-SKYMED 1 2.8 19:51:38 10° SSE 19:56:03 82° ENE 20:00:24 10° N
